Flag for Chile Weather past 2 weeks in Iquique, Chile

Now
73 °F

Passing clouds.


Feels Like: 76 °F
Forecast: 70 / 80 °F
Wind: 13 mph from South

Location: Iquique / Diego Arac

Current Time: Jan 30, 2015 at 10:13:20 PM

Latest Report: Jan 30, 2015 at 9:00 PM


Visibility: N/A

Pressure: 29.89 "Hg

Humidity: 69%

Dew point: 63 °F

Location of IquiqueLocation

Historic Weather in Iquique — Graph

°F

Iquique temperature yesterday

Maximum temperature yesterday: 77 °F (at 2:00 PM)
Minimum temperature yesterday: 66 °F (at 7:00 AM)
Average temperature yesterday: 72 °F

Past Weeks' High & Low Weather Summary

 TemperatureHumidityPressure
High77 °F (Jan 27, 2:00 PM)83% (Jan 21, 7:00 AM)30.09 "Hg (Jan 21, 7:00 AM)
Low64 °F (Jan 16, 3:00 AM)50% (Jan 18, 12:00 PM)29.83 "Hg (Jan 25, 6:00 PM)
Average71 °F65%29.95 "Hg
* Reported Jan 15 9:00 PM — Jan 30 9:00 PM, Iquique, Weather by CustomWeather, © 2014

Note: Actual official high and low records may vary slightly from our data, if they occured in-between our weather recording intervals... More about our weather records

Advertising

Iquique weather history for previous 24 hours

 ConditionsComfort  
Time TempWeatherWind HumidityBarometerVisibility
9:00 PM
Jan 30
73 °FPassing clouds.13 mph69%29.89 "HgN/A
8:00 PM73 °FPartly sunny.15 mph74%29.86 "HgN/A
7:00 PM73 °FPartly sunny.16 mph74%29.86 "HgN/A
6:00 PM75 °FPassing clouds.18 mph69%29.86 "HgN/A
5:00 PM77 °FPassing clouds.20 mph65%29.86 "HgN/A
4:00 PM75 °FScattered clouds.17 mph65%29.86 "HgN/A
3:00 PM75 °FPartly sunny.16 mph61%29.89 "HgN/A
2:00 PM75 °FPartly sunny.15 mph61%29.89 "HgN/A
1:00 PM77 °FPartly sunny.13 mph57%29.92 "HgN/A
12:00 PM75 °FPartly sunny.10 mph61%29.92 "HgN/A
11:00 AM73 °FPartly sunny.8 mph65%29.95 "HgN/A
10:00 AM73 °FSunny.7 mph69%29.95 "Hg10 mi
9:00 AM72 °FSunny.1 mph69%29.95 "Hg10 mi
8:00 AM68 °FSunny.No wind78%29.92 "Hg10 mi
7:00 AM70 °FClear.No wind73%29.92 "Hg10 mi
6:00 AM68 °FClear.No wind78%29.89 "Hg10 mi
5:00 AM68 °FClear.No wind78%29.89 "Hg10 mi
4:00 AM70 °FClear.No wind73%29.89 "Hg10 mi
3:00 AM70 °FClear.6 mph73%29.92 "Hg10 mi
2:00 AM70 °FClear.9 mph73%29.92 "Hg10 mi
1:00 AM72 °FClear.8 mph73%29.95 "Hg10 mi
12:00 AM70 °FClear.9 mph83%29.95 "Hg10 mi
11:00 PM
Jan 29
72 °FClear.10 mph78%29.95 "Hg10 mi
10:00 PM72 °FClear.13 mph78%29.92 "Hg10 mi
Weather by CustomWeather, © 2014

See weather overviewHow to use our weather pages